Flag for Myanmar Weather past 2 weeks in Yangon, Myanmar

Now
82 °F

Rain. Mostly cloudy.


Feels Like: 94 °F
Forecast: 79 / 87 °F
Wind: 9 mph from Southwest

Location: Rangoon Airport

Current Time: Sep 1, 2015 at 4:45:56 PM

Latest Report: Sep 1, 2015 at 4:00 PM


Visibility: 2 mi

Pressure: 29.71 "Hg

Humidity: 94%

Dew point: 81 °F

Location of YangonLocation

Historic Weather in Yangon — Graph

°F

Yangon temperature yesterday

Maximum temperature yesterday: 88 °F (at 3:00 PM)
Minimum temperature yesterday: 77 °F (at 12:00 AM)
Average temperature yesterday: 81 °F

Past Weeks' High & Low Weather Summary

 TemperatureHumidityPressure
High93 °F (Aug 30, 1:30 PM)100% (Aug 17, 3:30 PM)29.92 "Hg (Aug 17, 3:30 PM)
Low75 °F (Aug 17, 5:00 PM)53% (Aug 30, 1:30 PM)29.62 "Hg (Aug 25, 3:30 PM)
Average80 °F91%29.77 "Hg
* Reported Aug 17 3:30 PM — Sep 1 3:30 PM, Yangon, Weather by CustomWeather, © 2015

Note: Actual official high and low records may vary slightly from our data, if they occured in-between our weather recording intervals... More about our weather records

Advertising

Yangon weather history for previous 24 hours

 ConditionsComfort  
Time TempWeatherWind HumidityBarometerVisibility
3:30 PM
Tue, Sep 1
90 °FPartly sunny.6 mph75%29.71 "Hg5 mi
3:00 PM90 °FPartly sunny.7 mph75%29.71 "Hg5 mi
2:30 PM90 °FPartly sunny.9 mph75%29.71 "Hg5 mi
1:00 PM90 °FPartly sunny.9 mph75%29.77 "Hg5 mi
12:30 PM88 °FPartly sunny.7 mph79%29.80 "Hg5 mi
12:00 PM88 °FPartly sunny.6 mph79%29.80 "Hg5 mi
11:00 AM86 °FPartly sunny.7 mph84%29.80 "Hg5 mi
10:00 AM84 °FPartly sunny.6 mph74%29.80 "Hg5 mi
9:30 AM84 °FScattered clouds.6 mph74%29.80 "Hg5 mi
9:00 AM84 °FScattered clouds.6 mph74%29.80 "Hg5 mi
8:30 AM82 °FScattered clouds.3 mph84%29.80 "Hg4 mi
8:00 AM81 °FScattered clouds.3 mph84%29.80 "Hg4 mi
7:30 AM79 °FScattered clouds.No wind94%29.77 "Hg4 mi
7:00 AM79 °FScattered clouds.No wind94%29.77 "Hg4 mi
6:30 AM79 °FScattered clouds.No wind94%29.74 "Hg4 mi
6:00 AM79 °FPassing clouds.No wind94%29.74 "Hg4 mi
5:30 AM79 °FPassing clouds.3 mph94%29.77 "Hg4 mi
5:00 AM79 °FPassing clouds.3 mph94%29.77 "Hg4 mi
12:30 AM79 °FPassing clouds.3 mph94%29.83 "Hg4 mi
12:00 AM79 °FMostly cloudy.3 mph94%29.83 "Hg4 mi
11:30 PM
Mon, Aug 31
79 °FMostly cloudy.3 mph94%29.83 "Hg4 mi
11:00 PM79 °FMostly cloudy.3 mph94%29.83 "Hg4 mi
10:30 PM79 °FPassing clouds.3 mph94%29.83 "Hg4 mi
10:00 PM79 °FPassing clouds.3 mph94%29.83 "Hg4 mi
9:30 PM79 °FPassing clouds.3 mph94%29.83 "Hg4 mi
9:00 PM79 °FPassing clouds.3 mph94%29.83 "Hg4 mi
8:30 PM79 °FPassing clouds.3 mph94%29.80 "Hg4 mi
8:00 PM79 °FPassing clouds.3 mph94%29.80 "Hg4 mi
7:30 PM79 °FPassing clouds.3 mph94%29.77 "Hg4 mi
7:00 PM79 °FPassing clouds.3 mph94%29.77 "Hg4 mi
6:30 PM79 °FPartly sunny.5 mph94%29.77 "Hg4 mi
6:00 PM79 °FPartly sunny.5 mph94%29.77 "Hg4 mi
5:30 PM79 °FPartly sunny.3 mph94%29.77 "Hg4 mi
5:00 PM79 °FPartly sunny.5 mph94%29.77 "Hg4 mi
4:30 PM81 °FDrizzle. Mostly cloudy.5 mph100%29.77 "Hg4 mi
4:00 PM81 °FRain. Mostly cloudy.5 mph100%29.77 "Hg2 mi
Weather by CustomWeather, © 2015

See weather overviewHow to use our weather pages